Wind_Speed
9 10 12 12 16 14 11 4 4 6 4 6 7 10 11 13 16 19 21 24 26 27 27 25 24 23 23 23 23 23 23 24
6 7 9 3 5 9 4 3 3 4 7 10 12 14 15 18 21 23 24 27 31 33 34 32 30 30 28 26 25 27 27 27
12 11 9 8 4 2 4 5 8 8 10 14 17 20 22 23 25 27 30 31 32 35 38 39 38 37 35 33 32 32 32 32
7 6 4 1 1 4 6 8 11 13 16 18 20 21 22 27 27 26 27 32 33 35 34 39 43 43 42 40 39 38 37 36
3 0 4 6 8 9 10 12 14 15 14 14 18 24 29 31 34 36 36 31 29 30 31 31 36 45 49 47 44 41 39 38
5 8 10 11 11 9 8 7 7 9 13 20 24 29 32 34 35 33 31 32 33 34 34 35 34 35 45 50 43 39 36 33
5 5 4 3 0 2 4 7 12 18 23 28 31 30 31 33 35 36 38 39 39 38 36 34 36 35 37 36 38 31 26 25
5 3 2 2 4 8 13 20 24 27 29 30 30 30 30 33 37 39 39 38 38 37 33 29 28 23 25 27 27 28 26 22
6 5 5 6 10 17 23 26 29 30 28 27 26 27 32 37 39 40 37 34 35 31 29 18 18 20 19 13 10 10 13 16
8 8 8 11 20 25 26 27 26 25 24 27 31 36 40 43 43 40 31 29 30 22 16 11 8 9 12 19 17 19 27 21
13 14 16 16 19 22 24 23 23 24 29 31 35 41 45 46 44 29 23 27 21 11 7 8 14 19 22 25 26 17 17 15
17 20 21 21 23 25 24 25 27 30 32 35 39 44 47 45 31 19 16 14 8 6 9 14 19 16 13 11 12 13 16 19
24 23 25 23 28 27 25 28 31 32 31 36 44 43 40 29 21 9 7 5 5 8 15 9 8 13 17 18 20 21 22 23
26 27 20 25 28 27 25 28 31 29 34 39 39 37 31 21 9 8 8 8 8 11 14 15 17 16 21 23 24 25 26 27
26 22 21 26 28 25 28 31 28 33 36 32 31 27 25 13 7 8 10 7 14 18 18 14 17 21 22 27 29 29 30 28
21 19 23 24 25 29 34 27 32 35 30 26 24 20 20 15 13 12 14 19 24 23 20 17 19 23 28 30 29 26 27 29
19 19 21 22 26 30 30 34 38 29 23 22 15 17 18 15 12 13 16 21 24 24 22 22 24 27 28 26 25 26 29 32
23 23 26 28 30 29 34 33 27 22 23 11 7 8 14 19 21 22 21 23 21 20 24 27 27 25 24 24 25 29 34 37
20 23 29 29 29 35 31 24 25 26 17 17 18 17 15 18 20 22 23 24 24 25 25 25 26 25 26 30 33 34 34 33
Wind_Direction
246 266 266 236 227 230 216 248 323 327 332 341 327 325 331 333 333 326 317 310 304 299 297 294 286 282 281 281 278 275 277 279
79 55 52 75 187 188 206 271 316 315 310 313 313 317 317 323 324 318 314 313 308 298 291 287 281 276 277 278 278 275 276 279
87 78 75 89 116 192 270 282 288 299 296 293 297 305 309 313 315 310 307 308 308 298 291 289 282 277 274 270 269 270 271 270
96 95 70 69 269 233 248 260 268 276 279 285 294 301 304 309 310 307 302 300 299 297 292 279 275 273 269 269 267 266 267 265
128 320 256 249 243 245 257 266 273 283 297 309 315 316 315 316 314 314 311 308 301 299 300 294 278 269 267 266 263 260 254 252
219 233 237 245 248 254 274 294 306 310 314 314 313 311 312 313 314 313 309 307 306 303 298 295 290 281 270 264 253 248 243 239
239 220 208 218 213 349 340 327 324 317 312 312 317 322 321 320 319 316 313 311 308 305 303 298 287 277 270 259 238 230 218 218
255 264 239 23 357 346 337 330 326 324 323 321 318 317 318 319 319 317 313 311 310 309 309 302 285 263 234 218 206 203 209 212
45 59 17 351 341 337 332 328 323 320 319 318 318 320 322 322 323 322 313 307 307 309 309 293 250 213 198 195 207 223 243 255
16 351 335 328 327 318 316 318 319 320 324 324 323 324 324 323 317 321 301 301 301 293 269 242 234 258 263 253 284 296 309 314
347 331 315 301 312 320 321 324 326 328 328 327 325 325 325 326 324 314 296 292 285 251 243 287 301 304 299 299 304 314 308 314
319 313 302 301 316 319 327 333 334 332 331 328 325 325 328 327 321 317 283 264 224 253 295 296 300 315 316 315 304 295 290 290
324 311 304 306 327 327 328 332 331 329 326 324 324 326 327 328 327 307 204 233 276 298 292 308 300 325 322 313 306 301 300 298
330 328 318 320 327 326 321 325 323 321 323 325 327 329 332 328 301 242 211 234 265 287 306 324 321 308 305 310 308 305 302 302
332 325 320 327 331 329 328 322 320 323 326 326 331 334 340 321 264 232 235 262 283 289 299 305 298 299 301 305 305 304 304 303
325 320 323 329 334 335 327 323 325 328 325 327 332 338 336 319 285 270 268 274 286 300 309 297 296 297 299 302 303 303 303 301
331 334 341 337 335 319 321 326 326 327 318 321 332 336 336 332 345 355 334 329 322 316 302 298 296 299 304 307 307 303 301 299
328 333 332 329 320 319 322 323 329 321 317 329 343 340 347 342 332 324 319 316 311 305 302 303 307 309 308 305 303 302 301 301
345 337 323 319 322 321 321 321 329 327 323 340 340 332 329 320 319 318 313 309 309 310 310 310 309 309 309 307 305 303 301 301
Height
1532 1532 1532 1533 1536 1539 1542 1543 1542 1542 1541 1540 1539 1537 1535 1533 1531 1529 1528 1525 1523 1521 1519 1518 1517 1516 1515 1513 1511 1510 1510 1509
1530 1530 1530 1532 1535 1538 1540 1541 1540 1540 1539 1539 1537 1536 1533 1531 1529 1527 1525 1522 1520 1517 1514 1512 1511 1509 1509 1509 1508 1506 1505 1504
1531 1532 1533 1534 1535 1537 1539 1539 1539 1538 1536 1535 1533 1532 1530 1528 1526 1524 1521 1518 1515 1511 1508 1505 1504 1502 1501 1501 1500 1499 1499 1498
1533 1533 1534 1534 1535 1536 1537 1536 1535 1534 1533 1532 1530 1528 1526 1523 1521 1518 1516 1512 1507 1503 1499 1496 1495 1494 1491 1492 1492 1491 1491 1490
1532 1533 1534 1534 1535 1534 1534 1533 1532 1530 1529 1528 1525 1523 1520 1517 1513 1509 1506 1503 1499 1495 1491 1487 1485 1485 1483 1482 1483 1483 1483 1483
1532 1532 1532 1532 1532 1531 1531 1530 1529 1528 1527 1524 1521 1518 1514 1509 1506 1502 1498 1494 1491 1486 1483 1479 1476 1473 1472 1473 1474 1475 1475 1477
1533 1532 1532 1532 1531 1531 1530 1529 1528 1526 1524 1521 1516 1512 1507 1502 1499 1494 1489 1485 1480 1476 1472 1469 1464 1461 1461 1461 1462 1464 1467 1468
1533 1532 1532 1530 1531 1530 1528 1527 1525 1522 1519 1514 1511 1506 1503 1497 1492 1486 1480 1476 1471 1467 1463 1459 1456 1453 1454 1454 1456 1455 1457 1459
1531 1532 1531 1531 1530 1529 1527 1524 1521 1518 1515 1511 1507 1502 1497 1491 1485 1479 1474 1470 1466 1460 1459 1455 1453 1452 1452 1452 1453 1452 1454 1455
1533 1533 1532 1531 1530 1528 1524 1520 1517 1514 1510 1504 1502 1496 1490 1483 1478 1473 1467 1464 1461 1457 1456 1455 1454 1454 1452 1450 1450 1448 1451 1449
1536 1535 1533 1530 1527 1524 1521 1516 1511 1508 1503 1498 1494 1489 1482 1474 1468 1463 1461 1460 1457 1456 1456 1456 1454 1453 1450 1448 1448 1449 1448 1447
1536 1533 1529 1526 1523 1519 1513 1510 1507 1503 1498 1493 1489 1483 1474 1465 1458 1454 1457 1459 1458 1456 1453 1451 1451 1450 1448 1447 1447 1448 1447 1447
1531 1528 1525 1523 1519 1514 1510 1506 1502 1498 1493 1488 1482 1475 1468 1460 1453 1451 1455 1458 1456 1453 1449 1448 1449 1448 1447 1446 1445 1444 1443 1441
1525 1522 1519 1518 1514 1510 1506 1502 1497 1493 1488 1482 1477 1470 1464 1459 1453 1452 1453 1452 1451 1449 1447 1448 1447 1446 1445 1443 1441 1439 1437 1435
1521 1519 1517 1514 1510 1505 1501 1497 1492 1488 1482 1476 1470 1466 1463 1458 1455 1451 1451 1452 1449 1448 1446 1444 1444 1443 1440 1438 1435 1433 1430 1428
1517 1514 1511 1507 1504 1500 1495 1492 1487 1482 1476 1471 1466 1463 1461 1458 1456 1453 1451 1450 1448 1446 1443 1442 1440 1438 1436 1432 1430 1427 1424 1421
1515 1510 1506 1503 1500 1495 1492 1488 1483 1477 1472 1468 1464 1462 1459 1457 1453 1451 1450 1448 1445 1444 1441 1438 1436 1433 1430 1426 1422 1419 1417 1413
1511 1509 1506 1501 1496 1491 1485 1482 1478 1474 1468 1465 1462 1460 1457 1456 1454 1450 1447 1445 1442 1440 1438 1434 1430 1427 1423 1420 1417 1413 1409 1404
1507 1503 1501 1497 1493 1488 1483 1478 1474 1471 1466 1463 1462 1459 1455 1452 1450 1447 1444 1441 1438 1435 1432 1428 1425 1422 1418 1414 1409 1405 1400 1396